Content
SEND FEEDBACK

Daily
Averages
Monthly
Summary
United States of America

STATEN ISLAND, NEW YORK


Home > North America > United States > New York
Elevation: 152 feet     Latitude: 40 35N     Longitude: 074 09W

WEATHER
 
SELECT A DAY
Number of Records: 193,924;   Date Range: 1/1/95 - 12/18/14
 
SHARE

PRINT THIS DATA

[ ← Previous Day ]
WEATHER ALMANAC - MAY 17, 2013
[ Next Day → ]
[ °C ]   °F
Weather ElementAverageHighLow
Temperature67 °F75 °F (4:51 pm)60.1 °F (5:51 am)
Dewpoint38.6 °F43 °F (11:51 pm)35.1 °F (2:51 am)
Humidity36 %47 % (6:51 am)26 % (4:51 pm)
Barometer30.06 in30.20 in (11:51 pm)29.87 in (1:51 am)
Wind Speed9.2 mph16.1 mph (2:51 am)
Wind Gust24.2 mph (2:51 am)
Weather ElementAverage
Visibility10 mi
Wind DirectionWSW (257.8 °)

Weather ElementTotal
Precipitation---
Cooling Degree Days2.6 (Base 65)
Growing Degree Days17.6 (Base 50)
Averaged from 23 records on May 17, 2013
WEATHER CONDITIONS BREAKOUT
WIND DIRECTION BREAKOUT
WEATHER BY HOUR - MAY 17, 2013
[ °C ]   °F
Local TimeTemperatureDewpointHumidityBarometerVisibilityWind DirectionWind SpeedGust SpeedPrecipitationEventsConditions
1:51 AM70.0 °F36.0 °F29 %29.87 in10.0 miNW (320°)10.4 mphClear
2:51 AM66.0 °F35.1 °F32 %29.90 in10.0 miNW (320°)16.1 mph24.2 mphClear
3:51 AM64.0 °F35.1 °F34 %29.92 in10.0 miNW (320°)11.5 mphClear
4:51 AM61.0 °F37.0 °F41 %29.95 in10.0 miWNW (300°)5.8 mphClear
5:51 AM60.1 °F39.0 °F46 %29.98 in10.0 miNW (320°)5.8 mphScattered Clouds
6:51 AM60.1 °F39.9 °F47 %30.02 in10.0 miNNW (340°)9.2 mphScattered Clouds
7:51 AM62.1 °F39.9 °F44 %30.04 in10.0 miNNW (330°)15.0 mphMostly Cloudy
8:51 AM63.0 °F39.0 °F41 %30.06 in10.0 miNNW (330°)12.7 mphMostly Cloudy
9:51 AM63.0 °F39.0 °F41 %30.07 in10.0 miNW (320°)11.5 mphMostly Cloudy
10:51 AM64.9 °F39.0 °F39 %30.08 in10.0 miWNW (300°)9.2 mph18.4 mphMostly Cloudy
11:51 AM66.9 °F39.0 °F36 %30.09 in10.0 miWNW (300°)11.5 mphMostly Cloudy
12:51 PM68.0 °F37.9 °F33 %30.09 in10.0 miNNW (330°)13.8 mph20.7 mphMostly Cloudy
1:51 PM69.1 °F37.9 °F32 %30.09 in10.0 miWNW (300°)12.7 mph18.4 mphMostly Cloudy
2:51 PM70.0 °F39.0 °F32 %30.09 in10.0 miNW (310°)9.2 mph19.6 mphMostly Cloudy
3:51 PM71.1 °F39.9 °F32 %30.08 in10.0 miVariable5.8 mphMostly Cloudy
4:51 PM75.0 °F37.9 °F26 %30.08 in10.0 miNW (310°)5.8 mph17.3 mphMostly Cloudy
5:51 PM73.9 °F37.0 °F26 %30.08 in10.0 miWest (280°)6.9 mph19.6 mphMostly Cloudy
6:51 PM73.0 °F36.0 °F26 %30.09 in10.0 miWest (270°)9.2 mphMostly Cloudy
7:51 PM72.0 °F36.0 °F27 %30.12 in10.0 miNW (310°)9.2 mphMostly Cloudy
8:51 PM68.0 °F42.1 °F39 %30.14 in10.0 miNE (50°)4.6 mphMostly Cloudy
9:51 PM68.0 °F42.1 °F39 %30.17 in10.0 miENE (60°)9.2 mphScattered Clouds
10:51 PM66.9 °F41.0 °F39 %30.19 in10.0 miENE (70°)3.5 mphScattered Clouds
11:51 PM64.0 °F43.0 °F46 %30.20 in10.0 miSE (140°)3.5 mphMostly Cloudy
Hourly data recorded from KEWR, located miles away from Staten Island, New York







STORIES FROM OUR PARTNERS